Time,TemperatureF,DewpointF,PressureIn,WindDirection,WindDirectionDegrees,WindSpeedMPH,WindSpeedGustMPH,Humidity,HourlyPrecipIn,Conditions,Clouds,dailyrainin,SoftwareType,DateUTC
2013-05-03 00:00:00,58.9,55.3,30.04,ESE,119,0.0,0.0,88,0.00,,,0.00,WeatherCatV1.20B383,2013-05-03 04:00:00,
2013-05-03 00:05:00,58.9,55.3,30.04,ESE,120,0.0,0.0,88,0.00,,,0.00,WeatherCatV1.20B383,2013-05-03 04:05:00,
2013-05-03 00:10:00,58.9,55.3,30.04,ESE,120,0.0,0.0,88,0.00,,,0.00,WeatherCatV1.20B383,2013-05-03 04:10:00,
2013-05-03 00:15:00,58.9,55.3,30.04,ESE,120,0.0,0.0,88,0.00,,,0.00,WeatherCatV1.20B383,2013-05-03 04:15:00,
2013-05-03 00:20:00,59.0,55.8,30.04,ESE,120,0.0,0.0,89,0.00,,,0.00,WeatherCatV1.20B383,2013-05-03 04:20:00,
2013-05-03 00:25:00,59.0,55.8,30.04,ESE,120,0.0,0.0,89,0.00,,,0.00,WeatherCatV1.20B383,2013-05-03 04:25:00,
2013-05-03 00:30:00,59.0,55.8,30.03,ESE,120,0.0,0.0,89,0.00,,,0.00,WeatherCatV1.20B383,2013-05-03 04:30:00,
2013-05-03 00:35:00,59.0,55.8,30.03,ESE,119,0.0,0.0,89,0.00,,,0.00,WeatherCatV1.20B383,2013-05-03 04:35:00,
2013-05-03 00:40:00,59.2,56.0,30.03,ESE,119,0.0,0.0,89,0.00,,,0.00,WeatherCatV1.20B383,2013-05-03 04:40:00,
2013-05-03 00:45:00,59.2,55.6,30.02,ESE,120,0.0,0.0,88,0.00,,,0.00,WeatherCatV1.20B383,2013-05-03 04:45:00,
2013-05-03 00:50:00,59.5,55.6,30.02,ESE,120,0.0,0.0,87,0.00,,,0.00,WeatherCatV1.20B383,2013-05-03 04:50:00,
2013-05-03 00:55:00,59.6,55.4,30.02,ESE,120,0.0,0.0,86,0.00,,,0.00,WeatherCatV1.20B383,2013-05-03 04:55:00,
2013-05-03 01:00:00,59.9,55.7,30.02,ESE,119,0.0,0.0,86,0.00,,,0.00,WeatherCatV1.20B383,2013-05-03 05:00:00,
2013-05-03 01:05:00,59.9,55.7,30.02,ESE,119,0.0,0.0,86,0.00,,,0.00,WeatherCatV1.20B383,2013-05-03 05:05:00,
2013-05-03 01:10:00,59.9,55.7,30.02,ESE,120,1.0,1.0,86,0.00,,,0.00,WeatherCatV1.20B383,2013-05-03 05:10:00,
2013-05-03 01:15:00,59.9,55.7,30.02,ESE,120,0.0,0.0,86,0.00,,,0.00,WeatherCatV1.20B383,2013-05-03 05:15:00,
2013-05-03 01:20:00,59.9,55.7,30.02,ESE,120,0.0,2.0,86,0.00,,,0.00,WeatherCatV1.20B383,2013-05-03 05:20:00,
2013-05-03 01:25:00,59.8,55.6,30.02,ESE,120,0.0,2.0,86,0.00,,,0.00,WeatherCatV1.20B383,2013-05-03 05:25:00,
2013-05-03 01:30:00,59.8,55.9,30.02,ESE,120,0.0,0.0,87,0.00,,,0.00,WeatherCatV1.20B383,2013-05-03 05:30:00,
2013-05-03 01:35:00,59.8,55.9,30.02,ESE,119,0.0,3.0,87,0.00,,,0.00,WeatherCatV1.20B383,2013-05-03 05:35:00,
2013-05-03 01:40:00,59.8,55.9,30.02,ESE,120,0.0,3.0,87,0.00,,,0.00,WeatherCatV1.20B383,2013-05-03 05:40:00,
2013-05-03 01:45:00,59.8,55.9,30.01,ESE,120,1.0,2.0,87,0.00,,,0.00,WeatherCatV1.20B383,2013-05-03 05:45:00,
2013-05-03 01:50:00,59.9,55.7,30.01,ESE,119,0.0,1.0,86,0.00,,,0.00,WeatherCatV1.20B383,2013-05-03 05:50:00,
2013-05-03 01:55:00,59.9,55.7,30.01,ESE,119,0.0,1.0,86,0.00,,,0.00,WeatherCatV1.20B383,2013-05-03 05:55:00,
2013-05-03 02:00:00,59.9,55.7,30.00,ESE,120,0.0,2.0,86,0.00,,,0.00,WeatherCatV1.20B383,2013-05-03 06:00:00,
2013-05-03 02:05:00,60.1,55.9,30.00,ESE,120,0.0,0.0,86,0.00,,,0.00,WeatherCatV1.20B383,2013-05-03 06:05:00,
2013-05-03 02:10:00,60.2,55.3,30.00,ESE,119,2.0,4.0,84,0.00,,,0.00,WeatherCatV1.20B383,2013-05-03 06:10:00,
2013-05-03 02:15:00,60.4,55.2,30.00,ESE,120,0.0,3.0,83,0.00,,,0.00,WeatherCatV1.20B383,2013-05-03 06:15:00,
2013-05-03 02:20:00,60.5,55.3,30.00,ESE,120,2.0,3.0,83,0.00,,,0.00,WeatherCatV1.20B383,2013-05-03 06:20:00,
2013-05-03 02:25:00,60.5,55.3,30.00,ESE,120,1.0,2.0,83,0.00,,,0.00,WeatherCatV1.20B383,2013-05-03 06:25:00,
2013-05-03 02:30:00,60.5,55.0,30.00,ESE,120,0.0,4.0,82,0.00,,,0.00,WeatherCatV1.20B383,2013-05-03 06:30:00,
2013-05-03 02:35:00,60.5,55.0,30.00,ESE,120,0.0,2.0,82,0.00,,,0.00,WeatherCatV1.20B383,2013-05-03 06:35:00,
2013-05-03 02:40:00,60.5,55.0,30.00,ESE,120,0.0,5.0,82,0.00,,,0.00,WeatherCatV1.20B383,2013-05-03 06:40:00,
2013-05-03 02:45:00,60.5,54.6,30.00,SE,130,4.0,9.0,81,0.00,,,0.00,WeatherCatV1.20B383,2013-05-03 06:45:00,
2013-05-03 02:50:00,60.7,54.8,30.00,SE,130,3.0,4.0,81,0.00,,,0.00,WeatherCatV1.20B383,2013-05-03 06:50:00,
2013-05-03 02:55:00,60.9,54.7,30.00,SSE,151,0.0,2.0,80,0.00,,,0.00,WeatherCatV1.20B383,2013-05-03 06:55:00,
2013-05-03 03:00:00,60.7,54.5,29.99,SSE,149,0.0,2.0,80,0.00,,,0.00,WeatherCatV1.20B383,2013-05-03 07:00:00,
2013-05-03 03:05:00,60.5,54.6,29.99,SSE,149,0.0,5.0,81,0.00,,,0.00,WeatherCatV1.20B383,2013-05-03 07:05:00,
2013-05-03 03:10:00,60.4,54.5,29.99,SE,124,0.0,3.0,81,0.00,,,0.00,WeatherCatV1.20B383,2013-05-03 07:10:00,
2013-05-03 03:15:00,60.4,54.9,29.99,SE,124,1.0,3.0,82,0.00,,,0.00,WeatherCatV1.20B383,2013-05-03 07:15:00,
2013-05-03 03:20:00,60.4,54.9,29.99,SE,135,0.0,5.0,82,0.00,,,0.00,WeatherCatV1.20B383,2013-05-03 07:20:00,
2013-05-03 03:25:00,60.5,54.6,29.99,ESE,107,0.0,2.0,81,0.00,,,0.00,WeatherCatV1.20B383,2013-05-03 07:25:00,
2013-05-03 03:30:00,60.5,55.0,29.99,SSE,164,2.0,6.0,82,0.00,,,0.00,WeatherCatV1.20B383,2013-05-03 07:30:00,
2013-05-03 03:35:00,60.5,54.6,29.99,SE,137,0.0,5.0,81,0.00,,,0.00,WeatherCatV1.20B383,2013-05-03 07:35:00,
2013-05-03 03:40:00,60.4,54.9,29.99,SE,139,0.0,3.0,82,0.00,,,0.00,WeatherCatV1.20B383,2013-05-03 07:40:00,
2013-05-03 03:45:00,60.5,54.3,29.99,SSE,148,0.0,6.0,80,0.00,,,0.00,WeatherCatV1.20B383,2013-05-03 07:45:00,
2013-05-03 03:50:00,60.5,54.3,29.99,SSE,148,0.0,1.0,80,0.00,,,0.00,WeatherCatV1.20B383,2013-05-03 07:50:00,
2013-05-03 03:55:00,60.5,54.3,29.99,SSE,148,2.0,4.0,80,0.00,,,0.00,WeatherCatV1.20B383,2013-05-03 07:55:00,
2013-05-03 04:00:00,60.5,54.3,29.99,SSE,148,0.0,3.0,80,0.00,,,0.00,WeatherCatV1.20B383,2013-05-03 08:00:00,
2013-05-03 04:05:00,60.4,54.5,29.99,SSE,148,1.0,3.0,81,0.00,,,0.00,WeatherCatV1.20B383,2013-05-03 08:05:00,
2013-05-03 04:10:00,60.2,54.3,29.99,SSE,148,2.0,4.0,81,0.00,,,0.00,WeatherCatV1.20B383,2013-05-03 08:10:00,
2013-05-03 04:15:00,60.4,54.5,29.99,SSE,148,2.0,2.0,81,0.00,,,0.00,WeatherCatV1.20B383,2013-05-03 08:15:00,
2013-05-03 04:20:00,60.4,54.5,29.99,SE,135,0.0,4.0,81,0.00,,,0.00,WeatherCatV1.20B383,2013-05-03 08:20:00,
2013-05-03 04:25:00,60.2,54.3,29.99,SE,138,0.0,5.0,81,0.00,,,0.00,WeatherCatV1.20B383,2013-05-03 08:25:00,
2013-05-03 04:30:00,60.1,54.6,29.99,SE,138,3.0,3.0,82,0.00,,,0.00,WeatherCatV1.20B383,2013-05-03 08:30:00,
2013-05-03 04:35:00,60.1,54.6,29.99,SE,138,0.0,4.0,82,0.00,,,0.00,WeatherCatV1.20B383,2013-05-03 08:35:00,
2013-05-03 04:40:00,60.1,54.9,29.99,SE,138,0.0,3.0,83,0.00,,,0.00,WeatherCatV1.20B383,2013-05-03 08:40:00,
2013-05-03 04:45:00,60.1,54.9,29.99,SE,138,0.0,1.0,83,0.00,,,0.00,WeatherCatV1.20B383,2013-05-03 08:45:00,
2013-05-03 04:50:00,59.9,55.0,29.99,SE,138,2.0,3.0,84,0.00,,,0.00,WeatherCatV1.20B383,2013-05-03 08:50:00,
2013-05-03 04:55:00,59.9,54.7,29.99,SE,138,4.0,4.0,83,0.00,,,0.00,WeatherCatV1.20B383,2013-05-03 08:55:00,
2013-05-03 05:00:00,59.9,55.0,29.99,SE,138,0.0,2.0,84,0.00,,,0.00,WeatherCatV1.20B383,2013-05-03 09:00:00,
2013-05-03 05:05:00,59.9,55.0,29.99,SE,138,2.0,3.0,84,0.00,,,0.00,WeatherCatV1.20B383,2013-05-03 09:05:00,
2013-05-03 05:10:00,59.9,55.0,29.99,SE,138,1.0,2.0,84,0.00,,,0.00,WeatherCatV1.20B383,2013-05-03 09:10:00,
2013-05-03 05:15:00,59.8,55.3,29.99,SE,138,0.0,2.0,85,0.00,,,0.00,WeatherCatV1.20B383,2013-05-03 09:15:00,
2013-05-03 05:20:00,59.8,55.3,29.99,SE,138,2.0,3.0,85,0.00,,,0.00,WeatherCatV1.20B383,2013-05-03 09:20:00,
2013-05-03 05:25:00,59.6,55.1,29.99,SE,138,0.0,2.0,85,0.00,,,0.00,WeatherCatV1.20B383,2013-05-03 09:25:00,
2013-05-03 05:30:00,59.5,55.3,29.99,SE,138,2.0,2.0,86,0.00,,,0.00,WeatherCatV1.20B383,2013-05-03 09:30:00,
2013-05-03 05:35:00,59.3,54.8,29.99,SE,138,4.0,4.0,85,0.00,,,0.00,WeatherCatV1.20B383,2013-05-03 09:35:00,
2013-05-03 05:40:00,59.5,55.0,29.99,ESE,110,3.0,4.0,85,0.00,,,0.00,WeatherCatV1.20B383,2013-05-03 09:40:00,
2013-05-03 05:45:00,59.5,54.7,29.98,ESE,110,2.0,3.0,84,0.00,,,0.00,WeatherCatV1.20B383,2013-05-03 09:45:00,
2013-05-03 05:50:00,59.5,54.7,29.98,ESE,110,0.0,1.0,84,0.00,,,0.00,WeatherCatV1.20B383,2013-05-03 09:50:00,
2013-05-03 05:55:00,59.2,54.7,29.98,ESE,110,0.0,1.0,85,0.00,,,0.00,WeatherCatV1.20B383,2013-05-03 09:55:00,
2013-05-03 06:00:00,59.0,54.8,29.99,ESE,110,0.0,2.0,86,0.00,,,0.00,WeatherCatV1.20B383,2013-05-03 10:00:00,
2013-05-03 06:05:00,58.9,54.7,29.99,ESE,110,0.0,2.0,86,0.00,,,0.00,WeatherCatV1.20B383,2013-05-03 10:05:00,
2013-05-03 06:10:00,58.6,54.7,29.99,ESE,110,0.0,1.0,87,0.00,,,0.00,WeatherCatV1.20B383,2013-05-03 10:10:00,
2013-05-03 06:15:00,58.4,54.5,29.99,ESE,110,0.0,2.0,87,0.00,,,0.00,WeatherCatV1.20B383,2013-05-03 10:15:00,
2013-05-03 06:20:00,58.3,54.8,29.99,ESE,110,0.0,0.0,88,0.00,,,0.00,WeatherCatV1.20B383,2013-05-03 10:20:00,
2013-05-03 06:25:00,58.1,54.6,29.99,ESE,110,0.0,0.0,88,0.00,,,0.00,WeatherCatV1.20B383,2013-05-03 10:25:00,
2013-05-03 06:30:00,57.8,54.3,29.99,ESE,110,0.0,0.0,88,0.00,,,0.00,WeatherCatV1.20B383,2013-05-03 10:30:00,
2013-05-03 06:35:00,57.6,54.4,29.99,ESE,110,0.0,0.0,89,0.00,,,0.00,WeatherCatV1.20B383,2013-05-03 10:35:00,
2013-05-03 06:40:00,57.5,54.3,29.99,North,6,0.0,2.0,89,0.00,,,0.00,WeatherCatV1.20B383,2013-05-03 10:40:00,
2013-05-03 06:45:00,57.3,54.4,30.00,North,6,0.0,0.0,90,0.00,,,0.00,WeatherCatV1.20B383,2013-05-03 10:45:00,
2013-05-03 06:50:00,57.2,54.3,30.00,North,6,0.0,0.0,90,0.00,,,0.00,WeatherCatV1.20B383,2013-05-03 10:50:00,
2013-05-03 06:55:00,57.2,54.6,30.00,North,6,1.0,3.0,91,0.00,,,0.00,WeatherCatV1.20B383,2013-05-03 10:55:00,
2013-05-03 07:00:00,57.5,54.6,30.00,North,6,0.0,0.0,90,0.00,,,0.00,WeatherCatV1.20B383,2013-05-03 11:00:00,
2013-05-03 07:05:00,57.5,54.9,30.00,North,6,0.0,1.0,91,0.00,,,0.00,WeatherCatV1.20B383,2013-05-03 11:05:00,
2013-05-03 07:10:00,57.5,54.9,30.00,North,6,0.0,0.0,91,0.00,,,0.00,WeatherCatV1.20B383,2013-05-03 11:10:00,
2013-05-03 07:20:00,57.5,54.9,30.00,North,7,0.0,3.0,91,0.00,,,0.00,WeatherCatV1.20B383,2013-05-03 11:20:00,
2013-05-03 07:25:00,57.6,55.0,30.00,NNE,28,1.0,3.0,91,0.00,,,0.00,WeatherCatV1.20B383,2013-05-03 11:25:00,
2013-05-03 07:30:00,58.0,55.4,30.00,East,85,4.0,4.0,91,0.00,,,0.00,WeatherCatV1.20B383,2013-05-03 11:30:00,
2013-05-03 07:35:00,58.6,55.4,30.00,East,96,4.0,5.0,89,0.00,,,0.00,WeatherCatV1.20B383,2013-05-03 11:35:00,
2013-05-03 07:40:00,59.2,55.6,30.00,East,100,0.0,5.0,88,0.00,,,0.00,WeatherCatV1.20B383,2013-05-03 11:40:00,
2013-05-03 07:45:00,59.6,55.4,30.00,East,101,4.0,4.0,86,0.00,,,0.00,WeatherCatV1.20B383,2013-05-03 11:45:00,
2013-05-03 07:50:00,60.1,55.2,30.00,ESE,105,2.0,4.0,84,0.00,,,0.00,WeatherCatV1.20B383,2013-05-03 11:50:00,
2013-05-03 07:55:00,60.5,55.6,30.00,ESE,105,2.0,3.0,84,0.00,,,0.00,WeatherCatV1.20B383,2013-05-03 11:55:00,
2013-05-03 08:00:00,60.9,55.4,30.00,ESE,110,3.0,7.0,82,0.00,,,0.00,WeatherCatV1.20B383,2013-05-03 12:00:00,
2013-05-03 08:05:00,61.3,55.4,30.00,ESE,110,3.0,5.0,81,0.00,,,0.00,WeatherCatV1.20B383,2013-05-03 12:05:00,
2013-05-03 08:10:00,62.0,55.4,30.00,ESE,110,4.0,5.0,79,0.00,,,0.00,WeatherCatV1.20B383,2013-05-03 12:10:00,
2013-05-03 08:15:00,62.6,56.0,30.00,ESE,109,5.0,6.0,79,0.00,,,0.00,WeatherCatV1.20B383,2013-05-03 12:15:00,
2013-05-03 08:20:00,62.9,55.9,30.00,ESE,103,4.0,5.0,78,0.00,,,0.00,WeatherCatV1.20B383,2013-05-03 12:20:00,
2013-05-03 08:25:00,63.2,56.9,30.00,SE,132,4.0,7.0,80,0.00,,,0.00,WeatherCatV1.20B383,2013-05-03 12:25:00,
2013-05-03 08:30:00,63.9,55.8,30.00,SE,129,4.0,7.0,75,0.00,,,0.00,WeatherCatV1.20B383,2013-05-03 12:30:00,
2013-05-03 08:35:00,64.5,56.0,30.00,SE,134,0.0,6.0,74,0.00,,,0.00,WeatherCatV1.20B383,2013-05-03 12:35:00,
2013-05-03 08:40:00,64.8,56.7,30.00,SE,128,9.0,11.0,75,0.00,,,0.00,WeatherCatV1.20B383,2013-05-03 12:40:00,
2013-05-03 08:45:00,64.8,55.9,30.00,SSE,150,1.0,6.0,73,0.00,,,0.00,WeatherCatV1.20B383,2013-05-03 12:45:00,
2013-05-03 08:50:00,64.7,55.8,30.00,ESE,110,6.0,11.0,73,0.00,,,0.00,WeatherCatV1.20B383,2013-05-03 12:50:00,
2013-05-03 08:55:00,64.8,57.0,30.00,SE,141,8.0,9.0,76,0.00,,,0.00,WeatherCatV1.20B383,2013-05-03 12:55:00,
2013-05-03 09:00:00,65.2,57.1,30.00,SE,143,5.0,9.0,75,0.00,,,0.00,WeatherCatV1.20B383,2013-05-03 13:00:00,
2013-05-03 09:05:00,65.3,56.8,30.00,ESE,107,4.0,5.0,74,0.00,,,0.00,WeatherCatV1.20B383,2013-05-03 13:05:00,
2013-05-03 09:10:00,65.5,57.4,30.00,South,190,6.0,6.0,75,0.00,,,0.00,WeatherCatV1.20B383,2013-05-03 13:10:00,
2013-05-03 09:15:00,66.0,56.7,30.00,ESE,117,6.0,9.0,72,0.00,,,0.00,WeatherCatV1.20B383,2013-05-03 13:15:00,
2013-05-03 09:20:00,66.6,57.3,30.00,SSE,158,5.0,10.0,72,0.00,,,0.00,WeatherCatV1.20B383,2013-05-03 13:20:00,
2013-05-03 09:25:00,67.1,57.8,30.00,ESE,123,4.0,5.0,72,0.00,,,0.00,WeatherCatV1.20B383,2013-05-03 13:25:00,
2013-05-03 09:30:00,67.6,57.1,30.00,SE,130,6.0,13.0,69,0.00,,,0.00,WeatherCatV1.20B383,2013-05-03 13:30:00,
2013-05-03 09:35:00,67.9,58.5,30.00,South,179,4.0,6.0,72,0.00,,,0.00,WeatherCatV1.20B383,2013-05-03 13:35:00,
2013-05-03 09:40:00,68.6,57.6,30.00,SSW,198,9.0,11.0,68,0.00,,,0.00,WeatherCatV1.20B383,2013-05-03 13:40:00,
2013-05-03 09:45:00,68.6,57.2,29.99,ESE,117,4.0,16.0,67,0.00,,,0.00,WeatherCatV1.20B383,2013-05-03 13:45:00,
2013-05-03 09:50:00,68.8,57.4,29.99,SSE,155,1.0,5.0,67,0.00,,,0.00,WeatherCatV1.20B383,2013-05-03 13:50:00,
2013-05-03 09:55:00,69.6,57.3,29.99,West,260,4.0,12.0,65,0.00,,,0.00,WeatherCatV1.20B383,2013-05-03 13:55:00,
2013-05-03 10:00:00,69.4,58.4,29.99,ESE,109,7.0,14.0,68,0.00,,,0.00,WeatherCatV1.20B383,2013-05-03 14:00:00,
2013-05-03 10:05:00,69.6,57.7,29.99,ESE,105,4.0,5.0,66,0.00,,,0.00,WeatherCatV1.20B383,2013-05-03 14:05:00,
2013-05-03 10:10:00,69.8,57.9,29.99,ESE,114,5.0,14.0,66,0.00,,,0.00,WeatherCatV1.20B383,2013-05-03 14:10:00,
2013-05-03 10:15:00,69.6,56.9,29.99,SE,127,4.0,7.0,64,0.00,,,0.00,WeatherCatV1.20B383,2013-05-03 14:15:00,
2013-05-03 10:20:00,70.1,57.3,29.99,NE,44,2.0,6.0,64,0.00,,,0.00,WeatherCatV1.20B383,2013-05-03 14:20:00,
2013-05-03 10:45:00,71.3,57.6,29.99,ESE,106,10.0,10.0,62,0.00,,,0.00,WeatherCatV1.20B383,2013-05-03 14:45:00,
2013-05-03 10:50:00,70.9,57.7,29.99,ESE,113,2.0,14.0,63,0.00,,,0.00,WeatherCatV1.20B383,2013-05-03 14:50:00,
2013-05-03 10:55:00,71.5,60.4,29.99,SSE,162,3.0,9.0,68,0.00,,,0.00,WeatherCatV1.20B383,2013-05-03 14:55:00,
2013-05-03 11:00:00,72.3,59.4,29.98,SE,127,10.0,10.0,64,0.00,,,0.00,WeatherCatV1.20B383,2013-05-03 15:00:00,
2013-05-03 11:05:00,72.0,56.9,29.98,SE,139,6.0,13.0,59,0.00,,,0.00,WeatherCatV1.20B383,2013-05-03 15:05:00,
2013-05-03 11:10:00,72.0,58.3,29.98,SSE,161,4.0,7.0,62,0.00,,,0.00,WeatherCatV1.20B383,2013-05-03 15:10:00,
2013-05-03 11:15:00,72.8,59.0,29.98,SE,124,6.0,12.0,62,0.00,,,0.00,WeatherCatV1.20B383,2013-05-03 15:15:00,
2013-05-03 11:20:00,72.5,57.3,29.98,SE,132,8.0,12.0,59,0.00,,,0.00,WeatherCatV1.20B383,2013-05-03 15:20:00,
2013-05-03 11:25:00,72.7,58.9,29.98,ESE,112,5.0,9.0,62,0.00,,,0.00,WeatherCatV1.20B383,2013-05-03 15:25:00,
2013-05-03 11:30:00,72.8,60.3,29.98,East,82,9.0,11.0,65,0.00,,,0.00,WeatherCatV1.20B383,2013-05-03 15:30:00,
2013-05-03 11:35:00,73.0,57.3,29.98,SE,131,10.0,15.0,58,0.00,,,0.00,WeatherCatV1.20B383,2013-05-03 15:35:00,
2013-05-03 11:40:00,73.0,60.1,29.98,SE,132,5.0,11.0,64,0.00,,,0.00,WeatherCatV1.20B383,2013-05-03 15:40:00,
2013-05-03 11:45:00,73.0,58.3,29.98,ESE,115,10.0,13.0,60,0.00,,,0.00,WeatherCatV1.20B383,2013-05-03 15:45:00,
2013-05-03 11:50:00,72.7,59.4,29.98,ESE,117,2.0,7.0,63,0.00,,,0.00,WeatherCatV1.20B383,2013-05-03 15:50:00,
2013-05-03 11:55:00,72.8,58.6,29.98,SE,130,7.0,10.0,61,0.00,,,0.00,WeatherCatV1.20B383,2013-05-03 15:55:00,
2013-05-03 12:00:00,72.8,58.6,29.98,ESE,113,7.0,13.0,61,0.00,,,0.00,WeatherCatV1.20B383,2013-05-03 16:00:00,
2013-05-03 12:05:00,72.7,57.5,29.98,ESE,105,11.0,12.0,59,0.00,,,0.00,WeatherCatV1.20B383,2013-05-03 16:05:00,
2013-05-03 12:10:00,73.0,57.8,29.98,SE,140,5.0,11.0,59,0.00,,,0.00,WeatherCatV1.20B383,2013-05-03 16:10:00,
2013-05-03 12:15:00,74.2,59.9,29.97,ESE,113,6.0,12.0,61,0.00,,,0.00,WeatherCatV1.20B383,2013-05-03 16:15:00,
2013-05-03 12:20:00,74.7,59.9,29.97,SE,139,10.0,12.0,60,0.00,,,0.00,WeatherCatV1.20B383,2013-05-03 16:20:00,
2013-05-03 12:25:00,73.9,59.1,29.97,ESE,107,5.0,11.0,60,0.00,,,0.00,WeatherCatV1.20B383,2013-05-03 16:25:00,
2013-05-03 12:30:00,73.9,58.7,29.97,East,94,14.0,14.0,59,0.00,,,0.00,WeatherCatV1.20B383,2013-05-03 16:30:00,
2013-05-03 12:35:00,73.7,58.9,29.97,SE,127,7.0,11.0,60,0.00,,,0.00,WeatherCatV1.20B383,2013-05-03 16:35:00,
2013-05-03 12:40:00,74.4,59.1,29.97,SE,136,5.0,11.0,59,0.00,,,0.00,WeatherCatV1.20B383,2013-05-03 16:40:00,
2013-05-03 12:45:00,74.9,60.5,29.96,ESE,108,8.0,13.0,61,0.00,,,0.00,WeatherCatV1.20B383,2013-05-03 16:45:00,
2013-05-03 12:50:00,74.7,58.4,29.96,ESE,123,6.0,14.0,57,0.00,,,0.00,WeatherCatV1.20B383,2013-05-03 16:50:00,
2013-05-03 12:55:00,74.9,59.1,29.96,ESE,117,12.0,12.0,58,0.00,,,0.00,WeatherCatV1.20B383,2013-05-03 16:55:00,
2013-05-03 13:00:00,75.6,60.2,29.96,ESE,121,5.0,10.0,59,0.00,,,0.00,WeatherCatV1.20B383,2013-05-03 17:00:00,
2013-05-03 13:05:00,75.3,57.0,29.96,ESE,120,10.0,11.0,53,0.00,,,0.00,WeatherCatV1.20B383,2013-05-03 17:05:00,
2013-05-03 13:10:00,75.3,57.5,29.96,East,89,5.0,11.0,54,0.00,,,0.00,WeatherCatV1.20B383,2013-05-03 17:10:00,
2013-05-03 13:15:00,74.9,57.6,29.95,ESE,122,4.0,10.0,55,0.00,,,0.00,WeatherCatV1.20B383,2013-05-03 17:15:00,
2013-05-03 13:20:00,74.7,59.4,29.95,ESE,104,7.0,11.0,59,0.00,,,0.00,WeatherCatV1.20B383,2013-05-03 17:20:00,
2013-05-03 13:25:00,75.3,57.0,29.95,ESE,114,6.0,14.0,53,0.00,,,0.00,WeatherCatV1.20B383,2013-05-03 17:25:00,
2013-05-03 13:30:00,75.4,60.1,29.95,ESE,122,5.0,12.0,59,0.00,,,0.00,WeatherCatV1.20B383,2013-05-03 17:30:00,
2013-05-03 13:35:00,75.6,58.3,29.95,SE,127,11.0,11.0,55,0.00,,,0.00,WeatherCatV1.20B383,2013-05-03 17:35:00,
2013-05-03 13:40:00,74.7,56.9,29.95,ESE,106,12.0,15.0,54,0.00,,,0.00,WeatherCatV1.20B383,2013-05-03 17:40:00,
2013-05-03 13:45:00,74.9,57.6,29.95,East,101,6.0,11.0,55,0.00,,,0.00,WeatherCatV1.20B383,2013-05-03 17:45:00,
2013-05-03 13:50:00,76.3,58.9,29.95,ESE,123,10.0,12.0,55,0.00,,,0.00,WeatherCatV1.20B383,2013-05-03 17:50:00,
2013-05-03 13:55:00,75.8,55.8,29.95,ESE,121,13.0,19.0,50,0.00,,,0.00,WeatherCatV1.20B383,2013-05-03 17:55:00,
2013-05-03 14:00:00,75.1,55.7,29.94,South,173,0.0,9.0,51,0.00,,,0.00,WeatherCatV1.20B383,2013-05-03 18:00:00,
2013-05-03 14:05:00,75.3,58.0,29.94,ESE,113,5.0,18.0,55,0.00,,,0.00,WeatherCatV1.20B383,2013-05-03 18:05:00,
2013-05-03 14:10:00,75.1,58.3,29.94,ESE,117,11.0,12.0,56,0.00,,,0.00,WeatherCatV1.20B383,2013-05-03 18:10:00,
2013-05-03 14:15:00,74.7,56.4,29.94,SE,129,10.0,16.0,53,0.00,,,0.00,WeatherCatV1.20B383,2013-05-03 18:15:00,
2013-05-03 14:20:00,74.7,56.9,29.94,East,91,5.0,12.0,54,0.00,,,0.00,WeatherCatV1.20B383,2013-05-03 18:20:00,
2013-05-03 14:25:00,74.6,57.3,29.94,SE,138,5.0,13.0,55,0.00,,,0.00,WeatherCatV1.20B383,2013-05-03 18:25:00,
2013-05-03 14:30:00,74.7,55.9,29.94,SE,131,6.0,11.0,52,0.00,,,0.00,WeatherCatV1.20B383,2013-05-03 18:30:00,
2013-05-03 14:35:00,75.1,56.3,29.94,ESE,107,11.0,11.0,52,0.00,,,0.00,WeatherCatV1.20B383,2013-05-03 18:35:00,
2013-05-03 14:40:00,75.3,59.0,29.94,ESE,111,7.0,10.0,57,0.00,,,0.00,WeatherCatV1.20B383,2013-05-03 18:40:00,
2013-05-03 14:45:00,75.1,55.7,29.94,South,184,17.0,17.0,51,0.00,,,0.00,WeatherCatV1.20B383,2013-05-03 18:45:00,
2013-05-03 14:50:00,75.4,56.5,29.94,ESE,112,3.0,6.0,52,0.00,,,0.00,WeatherCatV1.20B383,2013-05-03 18:50:00,
2013-05-03 14:55:00,75.3,55.4,29.94,ESE,111,12.0,13.0,50,0.00,,,0.00,WeatherCatV1.20B383,2013-05-03 18:55:00,
2013-05-03 15:00:00,74.9,55.0,29.93,ESE,103,2.0,9.0,50,0.00,,,0.00,WeatherCatV1.20B383,2013-05-03 19:00:00,
2013-05-03 15:05:00,74.6,54.7,29.93,ESE,115,5.0,15.0,50,0.00,,,0.00,WeatherCatV1.20B383,2013-05-03 19:05:00,
2013-05-03 15:10:00,74.7,55.3,29.93,ESE,107,6.0,10.0,51,0.00,,,0.00,WeatherCatV1.20B383,2013-05-03 19:10:00,
2013-05-03 15:15:00,74.7,53.7,29.93,SE,145,5.0,7.0,48,0.00,,,0.00,WeatherCatV1.20B383,2013-05-03 19:15:00,
2013-05-03 15:20:00,74.9,55.5,29.93,ESE,116,5.0,10.0,51,0.00,,,0.00,WeatherCatV1.20B383,2013-05-03 19:20:00,
2013-05-03 15:25:00,75.3,54.8,29.93,SE,129,2.0,11.0,49,0.00,,,0.00,WeatherCatV1.20B383,2013-05-03 19:25:00,
2013-05-03 15:30:00,75.4,56.5,29.92,ESE,118,5.0,7.0,52,0.00,,,0.00,WeatherCatV1.20B383,2013-05-03 19:30:00,
2013-05-03 15:35:00,75.4,58.1,29.92,ESE,114,13.0,14.0,55,0.00,,,0.00,WeatherCatV1.20B383,2013-05-03 19:35:00,
2013-05-03 15:40:00,75.3,54.8,29.92,SE,143,6.0,14.0,49,0.00,,,0.00,WeatherCatV1.20B383,2013-05-03 19:40:00,
2013-05-03 15:45:00,75.4,54.3,29.92,ESE,115,6.0,9.0,48,0.00,,,0.00,WeatherCatV1.20B383,2013-05-03 19:45:00,
2013-05-03 15:50:00,74.9,55.5,29.92,SE,128,14.0,14.0,51,0.00,,,0.00,WeatherCatV1.20B383,2013-05-03 19:50:00,
2013-05-03 15:55:00,74.7,53.7,29.92,SE,132,4.0,11.0,48,0.00,,,0.00,WeatherCatV1.20B383,2013-05-03 19:55:00,
2013-05-03 16:00:00,75.1,55.2,29.91,SE,127,3.0,11.0,50,0.00,,,0.00,WeatherCatV1.20B383,2013-05-03 20:00:00,
2013-05-03 16:05:00,76.3,55.7,29.91,ESE,112,6.0,15.0,49,0.00,,,0.00,WeatherCatV1.20B383,2013-05-03 20:05:00,
2013-05-03 16:10:00,76.0,56.5,29.91,SSE,150,4.0,15.0,51,0.00,,,0.00,WeatherCatV1.20B383,2013-05-03 20:10:00,
2013-05-03 16:15:00,75.3,54.8,29.91,ESE,104,4.0,14.0,49,0.00,,,0.00,WeatherCatV1.20B383,2013-05-03 20:15:00,
2013-05-03 16:20:00,74.6,53.6,29.91,ESE,113,12.0,12.0,48,0.00,,,0.00,WeatherCatV1.20B383,2013-05-03 20:20:00,
2013-05-03 16:25:00,74.7,56.9,29.91,SSE,147,5.0,19.0,54,0.00,,,0.00,WeatherCatV1.20B383,2013-05-03 20:25:00,
2013-05-03 16:30:00,74.7,55.3,29.91,ESE,111,5.0,17.0,51,0.00,,,0.00,WeatherCatV1.20B383,2013-05-03 20:30:00,
2013-05-03 16:35:00,75.3,53.1,29.91,SSE,161,10.0,13.0,46,0.00,,,0.00,WeatherCatV1.20B383,2013-05-03 20:35:00,
2013-05-03 16:40:00,75.3,53.1,29.91,SSE,166,17.0,20.0,46,0.00,,,0.00,WeatherCatV1.20B383,2013-05-03 20:40:00,
2013-05-03 16:45:00,75.6,53.9,29.90,East,98,7.0,7.0,47,0.00,,,0.00,WeatherCatV1.20B383,2013-05-03 20:45:00,
2013-05-03 16:50:00,75.8,55.3,29.90,ESE,117,4.0,5.0,49,0.00,,,0.00,WeatherCatV1.20B383,2013-05-03 20:50:00,
2013-05-03 16:55:00,75.6,53.9,29.90,ESE,120,11.0,15.0,47,0.00,,,0.00,WeatherCatV1.20B383,2013-05-03 20:55:00,
2013-05-03 17:00:00,75.3,54.2,29.90,East,89,11.0,15.0,48,0.00,,,0.00,WeatherCatV1.20B383,2013-05-03 21:00:00,
2013-05-03 17:05:00,75.1,54.6,29.90,East,96,6.0,13.0,49,0.00,,,0.00,WeatherCatV1.20B383,2013-05-03 21:05:00,
2013-05-03 17:10:00,75.3,53.7,29.90,East,80,12.0,16.0,47,0.00,,,0.00,WeatherCatV1.20B383,2013-05-03 21:10:00,
2013-05-03 17:15:00,75.1,53.5,29.90,ESE,111,4.0,14.0,47,0.00,,,0.00,WeatherCatV1.20B383,2013-05-03 21:15:00,
2013-05-03 17:20:00,75.1,53.5,29.90,ESE,120,7.0,15.0,47,0.00,,,0.00,WeatherCatV1.20B383,2013-05-03 21:20:00,
2013-05-03 17:25:00,74.7,53.1,29.90,ESE,115,11.0,16.0,47,0.00,,,0.00,WeatherCatV1.20B383,2013-05-03 21:25:00,
2013-05-03 17:30:00,74.6,54.2,29.90,ESE,103,7.0,13.0,49,0.00,,,0.00,WeatherCatV1.20B383,2013-05-03 21:30:00,
2013-05-03 17:35:00,74.6,53.0,29.90,ESE,105,4.0,17.0,47,0.00,,,0.00,WeatherCatV1.20B383,2013-05-03 21:35:00,
2013-05-03 17:40:00,74.6,53.6,29.90,ESE,107,5.0,13.0,48,0.00,,,0.00,WeatherCatV1.20B383,2013-05-03 21:40:00,
2013-05-03 17:45:00,74.7,54.3,29.90,ESE,120,5.0,9.0,49,0.00,,,0.00,WeatherCatV1.20B383,2013-05-03 21:45:00,
2013-05-03 17:50:00,75.1,55.2,29.90,SE,124,10.0,10.0,50,0.00,,,0.00,WeatherCatV1.20B383,2013-05-03 21:50:00,
2013-05-03 17:55:00,75.3,55.9,29.90,SE,139,10.0,11.0,51,0.00,,,0.00,WeatherCatV1.20B383,2013-05-03 21:55:00,
2013-05-03 18:00:00,75.3,54.2,29.90,ESE,103,4.0,11.0,48,0.00,,,0.00,WeatherCatV1.20B383,2013-05-03 22:00:00,
2013-05-03 18:05:00,74.9,53.9,29.90,East,94,8.0,15.0,48,0.00,,,0.00,WeatherCatV1.20B383,2013-05-03 22:05:00,
2013-05-03 18:10:00,74.6,54.7,29.90,ESE,122,11.0,15.0,50,0.00,,,0.00,WeatherCatV1.20B383,2013-05-03 22:10:00,
2013-05-03 18:15:00,74.6,54.7,29.90,East,93,3.0,10.0,50,0.00,,,0.00,WeatherCatV1.20B383,2013-05-03 22:15:00,
2013-05-03 18:20:00,74.7,54.3,29.90,ESE,118,9.0,14.0,49,0.00,,,0.00,WeatherCatV1.20B383,2013-05-03 22:20:00,
2013-05-03 18:25:00,74.9,53.3,29.90,ESE,123,5.0,11.0,47,0.00,,,0.00,WeatherCatV1.20B383,2013-05-03 22:25:00,
2013-05-03 18:30:00,74.7,53.1,29.90,SE,136,7.0,10.0,47,0.00,,,0.00,WeatherCatV1.20B383,2013-05-03 22:30:00,
2013-05-03 18:35:00,74.6,53.6,29.90,SE,131,11.0,11.0,48,0.00,,,0.00,WeatherCatV1.20B383,2013-05-03 22:35:00,
2013-05-03 18:40:00,74.6,54.2,29.90,ESE,122,11.0,13.0,49,0.00,,,0.00,WeatherCatV1.20B383,2013-05-03 22:40:00,
2013-05-03 18:45:00,74.6,52.4,29.90,ESE,110,4.0,13.0,46,0.00,,,0.00,WeatherCatV1.20B383,2013-05-03 22:45:00,
2013-05-03 18:50:00,74.4,52.8,29.90,SSE,166,10.0,15.0,47,0.00,,,0.00,WeatherCatV1.20B383,2013-05-03 22:50:00,
2013-05-03 18:55:00,74.2,53.2,29.90,ESE,109,8.0,11.0,48,0.00,,,0.00,WeatherCatV1.20B383,2013-05-03 22:55:00,
2013-05-03 19:00:00,74.0,54.7,29.90,ESE,104,9.0,14.0,51,0.00,,,0.00,WeatherCatV1.20B383,2013-05-03 23:00:00,
2013-05-03 19:05:00,73.9,53.5,29.90,SE,125,6.0,12.0,49,0.00,,,0.00,WeatherCatV1.20B383,2013-05-03 23:05:00,
2013-05-03 19:10:00,73.7,54.4,29.90,ESE,108,5.0,11.0,51,0.00,,,0.00,WeatherCatV1.20B383,2013-05-03 23:10:00,
2013-05-03 19:15:00,73.5,54.8,29.90,South,172,7.0,10.0,52,0.00,,,0.00,WeatherCatV1.20B383,2013-05-03 23:15:00,
2013-05-03 19:20:00,73.3,54.1,29.90,ESE,107,3.0,9.0,51,0.00,,,0.00,WeatherCatV1.20B383,2013-05-03 23:20:00,
2013-05-03 19:25:00,73.2,53.4,29.90,ESE,120,7.0,12.0,50,0.00,,,0.00,WeatherCatV1.20B383,2013-05-03 23:25:00,
2013-05-03 19:30:00,73.0,53.8,29.89,ESE,116,6.0,7.0,51,0.00,,,0.00,WeatherCatV1.20B383,2013-05-03 23:30:00,
2013-05-03 19:35:00,72.8,53.1,29.89,ESE,106,8.0,12.0,50,0.00,,,0.00,WeatherCatV1.20B383,2013-05-03 23:35:00,
2013-05-03 19:40:00,72.8,53.1,29.89,ESE,115,10.0,16.0,50,0.00,,,0.00,WeatherCatV1.20B383,2013-05-03 23:40:00,
2013-05-03 19:45:00,72.8,52.5,29.90,East,101,9.0,14.0,49,0.00,,,0.00,WeatherCatV1.20B383,2013-05-03 23:45:00,
2013-05-03 19:50:00,72.7,53.5,29.90,East,97,5.0,12.0,51,0.00,,,0.00,WeatherCatV1.20B383,2013-05-03 23:50:00,
2013-05-03 19:55:00,72.7,53.0,29.90,ENE,77,7.0,13.0,50,0.00,,,0.00,WeatherCatV1.20B383,2013-05-03 23:55:00,
2013-05-03 20:00:00,72.7,53.0,29.90,ESE,122,8.0,15.0,50,0.00,,,0.00,WeatherCatV1.20B383,2013-05-04 00:00:00,
2013-05-03 20:05:00,72.3,53.1,29.90,ESE,117,5.0,10.0,51,0.00,,,0.00,WeatherCatV1.20B383,2013-05-04 00:05:00,
2013-05-03 20:10:00,72.1,53.0,29.90,East,101,5.0,7.0,51,0.00,,,0.00,WeatherCatV1.20B383,2013-05-04 00:10:00,
2013-05-03 20:15:00,72.0,52.9,29.91,ESE,108,6.0,17.0,51,0.00,,,0.00,WeatherCatV1.20B383,2013-05-04 00:15:00,
2013-05-03 20:20:00,72.0,52.9,29.91,ESE,122,10.0,14.0,51,0.00,,,0.00,WeatherCatV1.20B383,2013-05-04 00:20:00,
2013-05-03 20:25:00,71.6,52.5,29.91,ESE,108,5.0,12.0,51,0.00,,,0.00,WeatherCatV1.20B383,2013-05-04 00:25:00,
2013-05-03 20:30:00,71.5,53.5,29.90,SE,127,5.0,7.0,53,0.00,,,0.00,WeatherCatV1.20B383,2013-05-04 00:30:00,
2013-05-03 20:35:00,71.3,52.2,29.90,ESE,109,1.0,13.0,51,0.00,,,0.00,WeatherCatV1.20B383,2013-05-04 00:35:00,
2013-05-03 20:40:00,71.1,52.6,29.90,SE,124,5.0,11.0,52,0.00,,,0.00,WeatherCatV1.20B383,2013-05-04 00:40:00,
2013-05-03 20:45:00,70.9,52.4,29.91,ESE,117,5.0,12.0,52,0.00,,,0.00,WeatherCatV1.20B383,2013-05-04 00:45:00,
2013-05-03 20:50:00,70.6,53.6,29.91,SE,128,1.0,7.0,55,0.00,,,0.00,WeatherCatV1.20B383,2013-05-04 00:50:00,
2013-05-03 20:55:00,70.3,53.8,29.91,SE,127,6.0,9.0,56,0.00,,,0.00,WeatherCatV1.20B383,2013-05-04 00:55:00,
2013-05-03 21:00:00,69.9,52.5,29.91,ESE,103,4.0,9.0,54,0.00,,,0.00,WeatherCatV1.20B383,2013-05-04 01:00:00,
2013-05-03 21:05:00,69.9,52.5,29.91,ESE,122,3.0,11.0,54,0.00,,,0.00,WeatherCatV1.20B383,2013-05-04 01:05:00,
2013-05-03 21:10:00,70.1,52.7,29.91,ESE,120,6.0,11.0,54,0.00,,,0.00,WeatherCatV1.20B383,2013-05-04 01:10:00,
2013-05-03 21:15:00,69.9,53.0,29.91,East,95,4.0,7.0,55,0.00,,,0.00,WeatherCatV1.20B383,2013-05-04 01:15:00,
2013-05-03 21:20:00,69.6,52.7,29.91,ESE,115,5.0,7.0,55,0.00,,,0.00,WeatherCatV1.20B383,2013-05-04 01:20:00,
2013-05-03 21:25:00,69.6,52.2,29.91,East,95,7.0,10.0,54,0.00,,,0.00,WeatherCatV1.20B383,2013-05-04 01:25:00,
2013-05-03 21:30:00,69.3,51.9,29.91,ESE,103,9.0,10.0,54,0.00,,,0.00,WeatherCatV1.20B383,2013-05-04 01:30:00,
2013-05-03 21:35:00,69.3,51.9,29.91,SE,136,5.0,7.0,54,0.00,,,0.00,WeatherCatV1.20B383,2013-05-04 01:35:00,
2013-05-03 21:40:00,69.1,52.2,29.91,ESE,122,4.0,7.0,55,0.00,,,0.00,WeatherCatV1.20B383,2013-05-04 01:40:00,
2013-05-03 21:45:00,68.8,52.0,29.91,ESE,113,7.0,9.0,55,0.00,,,0.00,WeatherCatV1.20B383,2013-05-04 01:45:00,
2013-05-03 21:50:00,68.8,52.5,29.91,ESE,115,4.0,8.0,56,0.00,,,0.00,WeatherCatV1.20B383,2013-05-04 01:50:00,
2013-05-03 21:55:00,68.4,52.1,29.91,ESE,107,6.0,6.0,56,0.00,,,0.00,WeatherCatV1.20B383,2013-05-04 01:55:00,
2013-05-03 22:00:00,68.6,51.8,29.92,ESE,119,4.0,8.0,55,0.00,,,0.00,WeatherCatV1.20B383,2013-05-04 02:00:00,
2013-05-03 22:05:00,68.4,52.1,29.92,ESE,116,5.0,12.0,56,0.00,,,0.00,WeatherCatV1.20B383,2013-05-04 02:05:00,
2013-05-03 22:10:00,68.4,51.6,29.92,ESE,113,6.0,11.0,55,0.00,,,0.00,WeatherCatV1.20B383,2013-05-04 02:10:00,
2013-05-03 22:15:00,68.4,50.1,29.92,ESE,109,4.0,10.0,52,0.00,,,0.00,WeatherCatV1.20B383,2013-05-04 02:15:00,
2013-05-03 22:20:00,68.3,50.0,29.92,SE,131,6.0,14.0,52,0.00,,,0.00,WeatherCatV1.20B383,2013-05-04 02:20:00,
2013-05-03 22:25:00,68.3,48.4,29.92,ESE,106,6.0,13.0,49,0.00,,,0.00,WeatherCatV1.20B383,2013-05-04 02:25:00,
2013-05-03 22:30:00,68.1,47.7,29.92,ESE,110,4.0,13.0,48,0.00,,,0.00,WeatherCatV1.20B383,2013-05-04 02:30:00,
2013-05-03 22:35:00,68.1,48.2,29.92,SE,134,4.0,12.0,49,0.00,,,0.00,WeatherCatV1.20B383,2013-05-04 02:35:00,
2013-05-03 22:40:00,67.8,47.9,29.92,ESE,117,3.0,12.0,49,0.00,,,0.00,WeatherCatV1.20B383,2013-05-04 02:40:00,
2013-05-03 22:45:00,67.6,48.3,29.92,East,97,3.0,9.0,50,0.00,,,0.00,WeatherCatV1.20B383,2013-05-04 02:45:00,
2013-05-03 22:50:00,67.4,47.0,29.92,ESE,120,4.0,10.0,48,0.00,,,0.00,WeatherCatV1.20B383,2013-05-04 02:50:00,
2013-05-03 22:55:00,67.4,47.6,29.92,SE,141,5.0,7.0,49,0.00,,,0.00,WeatherCatV1.20B383,2013-05-04 02:55:00,
2013-05-03 23:00:00,66.9,48.7,29.92,ESE,119,7.0,10.0,52,0.00,,,0.00,WeatherCatV1.20B383,2013-05-04 03:00:00,
2013-05-03 23:05:00,66.4,47.7,29.92,SSE,153,2.0,6.0,51,0.00,,,0.00,WeatherCatV1.20B383,2013-05-04 03:05:00,
2013-05-03 23:10:00,66.1,46.9,29.92,SE,131,1.0,9.0,50,0.00,,,0.00,WeatherCatV1.20B383,2013-05-04 03:10:00,
2013-05-03 23:15:00,66.0,47.3,29.93,ESE,122,2.0,6.0,51,0.00,,,0.00,WeatherCatV1.20B383,2013-05-04 03:15:00,
2013-05-03 23:20:00,65.8,47.2,29.93,SSE,161,1.0,10.0,51,0.00,,,0.00,WeatherCatV1.20B383,2013-05-04 03:20:00,
2013-05-03 23:25:00,65.5,47.4,29.93,SE,124,2.0,6.0,52,0.00,,,0.00,WeatherCatV1.20B383,2013-05-04 03:25:00,
2013-05-03 23:30:00,65.2,48.6,29.93,ESE,120,3.0,4.0,55,0.00,,,0.00,WeatherCatV1.20B383,2013-05-04 03:30:00,
2013-05-03 23:35:00,64.8,47.8,29.93,ESE,113,0.0,6.0,54,0.00,,,0.00,WeatherCatV1.20B383,2013-05-04 03:35:00,
2013-05-03 23:40:00,64.3,47.8,29.93,ESE,118,0.0,5.0,55,0.00,,,0.00,WeatherCatV1.20B383,2013-05-04 03:40:00,
2013-05-03 23:45:00,64.2,46.7,29.93,ESE,114,5.0,6.0,53,0.00,,,0.00,WeatherCatV1.20B383,2013-05-04 03:45:00,
2013-05-03 23:50:00,64.3,47.8,29.93,SE,131,3.0,6.0,55,0.00,,,0.00,WeatherCatV1.20B383,2013-05-04 03:50:00,
2013-05-03 23:55:00,64.2,48.2,29.93,SE,133,0.0,5.0,56,0.00,,,0.00,WeatherCatV1.20B383,2013-05-04 03:55:00,